"Sample Date","Sample Time","Sample Value","Units","Flow Rate","Sample Interval","Number Channels","Micron Size 0","Counts/Channel 0","Micron Size 1","Counts/Channel 1","Micron Size 2","Counts/Channel 2","Micron Size 3","Counts/Channel 3","Micron Size 4","Counts/Channel 4","Micron Size 5","Counts/Channel 5","Micron Size 6","Counts/Channel 6","Micron Size 7","Counts/Channel 7","Micron Size 8","Counts/Channel 8","Micron Size 9","Counts/Channel 9","Micron Size 10","Counts/Channel 10","Micron Size 11","Counts/Channel 11","Micron Size 12","Counts/Channel 12","Micron Size 13","Counts/Channel 13","Micron Size 14","Counts/Channel 14","Micron Size 15","Counts/Channel 15","Micron Size 16","Counts/Channel 16","Micron Size 17","Counts/Channel 17","Micron Size 18","Counts/Channel 18","Micron Size 19","Counts/Channel 19","Micron Size 20","Counts/Channel 20","Micron Size 21","Counts/Channel 21","Micron Size 22","Counts/Channel 22","Micron Size 23","Counts/Channel 23","Micron Size 24","Counts/Channel 24","Micron Size 25","Counts/Channel 25","Micron Size 26","Counts/Channel 26","Micron Size 27","Counts/Channel 27","Micron Size 28","Counts/Channel 28","Micron Size 29","Counts/Channel 29","Micron Size 30","Counts/Channel 30","Micron Size 31","Counts/Channel 31"
"04/04/08","01:00:04",15847.000,"cc",28301.207,6.00,6,0.100,10164.000,0.200,1947.000,0.300,1531.000,0.500,1684.000,1.000,521.000,5.000,0
"04/04/08","01:00:10",15848.000,"cc",28390.447,6.00,6,0.100,10273.000,0.200,1867.000,0.300,1503.000,0.500,1671.000,1.000,534.000,5.000,0
"04/04/08","01:00:16",15821.000,"cc",28328.135,6.00,6,0.100,10142.000,0.200,1934.000,0.300,1603.000,0.500,1641.000,1.000,501.000,5.000,0
"04/04/08","01:00:22",15862.000,"cc",28284.184,6.00,6,0.100,10042.000,0.200,2008.000,0.300,1536.000,0.500,1717.000,1.000,559.000,5.000,0
"04/04/08","01:00:28",16082.000,"cc",28345.572,6.00,6,0.100,10317.000,0.200,1937.000,0.300,1626.000,0.500,1661.000,1.000,541.000,5.000,0
"04/04/08","01:00:34",16201.000,"cc",28287.084,6.00,6,0.100,10324.000,0.200,1947.000,0.300,1641.000,0.500,1746.000,1.000,543.000,5.000,0
"04/04/08","01:00:40",15929.000,"cc",28269.984,6.00,6,0.100,10259.000,0.200,1867.000,0.300,1521.000,0.500,1693.000,1.000,589.000,5.000,0
"04/04/08","01:00:46",15818.000,"cc",28306.313,6.00,6,0.100,10224.000,0.200,1922.000,0.300,1520.000,0.500,1636.000,1.000,516.000,5.000,0
"04/04/08","01:00:52",16234.000,"cc",28309.967,6.00,6,0.100,10503.000,0.200,1939.000,0.300,1493.000,0.500,1720.000,1.000,579.000,5.000,0
"04/04/08","01:00:58",16124.000,"cc",28371.791,6.00,6,0.100,10454.000,0.200,1939.000,0.300,1538.000,0.500,1661.000,1.000,532.000,5.000,0
"04/04/08","01:01:04",15808.000,"cc",28337.828,6.00,6,0.100,10153.000,0.200,1894.000,0.300,1510.000,0.500,1737.000,1.000,514.000,5.000,0
"04/04/08","01:01:10",16093.000,"cc",28266.367,6.00,6,0.100,10432.000,0.200,1919.000,0.300,1492.000,0.500,1693.000,1.000,557.000,5.000,0
"04/04/08","01:01:16",16081.000,"cc",28300.174,6.00,6,0.100,10313.000,0.200,2003.000,0.300,1584.000,0.500,1686.000,1.000,495.000,5.000,0
"04/04/08","01:01:22",15894.000,"cc",28368.570,6.00,6,0.100,10215.000,0.200,1918.000,0.300,1499.000,0.500,1733.000,1.000,529.000,5.000,0
"04/04/08","01:01:28",16267.000,"cc",28319.506,6.00,6,0.100,10448.000,0.200,1987.000,0.300,1590.000,0.500,1744.000,1.000,498.000,5.000,0
"04/04/08","01:01:34",16028.000,"cc",28281.430,6.00,6,0.100,10240.000,0.200,1949.000,0.300,1529.000,0.500,1732.000,1.000,578.000,5.000,0
"04/04/08","01:01:40",16229.000,"cc",28348.270,6.00,6,0.100,10458.000,0.200,2006.000,0.300,1554.000,0.500,1660.000,1.000,551.000,5.000,0
"04/04/08","01:01:46",15970.000,"cc",28288.051,6.00,6,0.100,10240.000,0.200,1957.000,0.300,1570.000,0.500,1682.000,1.000,521.000,5.000,0
"04/04/08","01:01:52",16003.000,"cc",28237.143,6.00,6,0.100,10266.000,0.200,1912.000,0.300,1567.000,0.500,1727.000,1.000,531.000,5.000,0
"04/04/08","01:01:58",16034.000,"cc",28349.676,6.00,6,0.100,10325.000,0.200,1964.000,0.300,1563.000,0.500,1624.000,1.000,558.000,5.000,0
"04/04/08","01:02:04",15871.000,"cc",28288.340,6.00,6,0.100,10167.000,0.200,1950.000,0.300,1607.000,0.500,1631.000,1.000,516.000,5.000,0
"04/04/08","01:02:10",16074.000,"cc",28397.742,6.00,6,0.100,10392.000,0.200,1889.000,0.300,1497.000,0.500,1737.000,1.000,559.000,5.000,0
"04/04/08","01:02:16",16147.000,"cc",28333.051,6.00,6,0.100,10461.000,0.200,1986.000,0.300,1535.000,0.500,1634.000,1.000,531.000,5.000,0
"04/04/08","01:02:22",16343.000,"cc",28293.533,6.00,6,0.100,10570.000,0.200,1978.000,0.300,1584.000,0.500,1714.000,1.000,497.000,5.000,0
"04/04/08","01:02:28",15893.000,"cc",28336.863,6.00,6,0.100,10192.000,0.200,1858.000,0.300,1550.000,0.500,1726.000,1.000,567.000,5.000,0
"04/04/08","01:02:34",16200.000,"cc",28338.871,6.00,6,0.100,10385.000,0.200,2015.000,0.300,1586.000,0.500,1663.000,1.000,551.000,5.000,0
"04/04/08","01:02:40",15846.000,"cc",28381.240,6.00,6,0.100,10213.000,0.200,1881.000,0.300,1530.000,0.500,1688.000,1.000,534.000,5.000,0
"04/04/08","01:02:46",15883.000,"cc",28305.572,6.00,6,0.100,10156.000,0.200,1893.000,0.300,1573.000,0.500,1724.000,1.000,537.000,5.000,0
"04/04/08","01:02:52",15950.000,"cc",28242.750,6.00,6,0.100,10264.000,0.200,1955.000,0.300,1533.000,0.500,1658.000,1.000,540.000,5.000,0
"04/04/08","01:02:58",16019.000,"cc",28283.490,6.00,6,0.100,10348.000,0.200,1937.000,0.300,1515.000,0.500,1654.000,1.000,565.000,5.000,0
"04/04/08","01:03:04",16072.000,"cc",28312.709,6.00,6,0.100,10471.000,0.200,1870.000,0.300,1499.000,0.500,1714.000,1.000,518.000,5.000,0
"04/04/08","01:03:10",15946.000,"cc",28273.268,6.00,6,0.100,10302.000,0.200,1920.000,0.300,1522.000,0.500,1680.000,1.000,522.000,5.000,0
"04/04/08","01:03:16",16430.000,"cc",28342.016,6.00,6,0.100,10542.000,0.200,1968.000,0.300,1616.000,0.500,1742.000,1.000,562.000,5.000,0
"04/04/08","01:03:22",16069.000,"cc",28302.514,6.00,6,0.100,10384.000,0.200,1879.000,0.300,1543.000,0.500,1713.000,1.000,550.000,5.000,0
"04/04/08","01:03:28",16157.000,"cc",28366.494,6.00,6,0.100,10247.000,0.200,1947.000,0.300,1635.000,0.500,1749.000,1.000,579.000,5.000,0
"04/04/08","01:03:34",16148.000,"cc",28345.576,6.00,6,0.100,10485.000,0.200,1950.000,0.300,1486.000,0.500,1711.000,1.000,516.000,5.000,0
"04/04/08","01:03:40",16052.000,"cc",28246.920,6.00,6,0.100,10279.000,0.200,1977.000,0.300,1579.000,0.500,1687.000,1.000,530.000,5.000,0
"04/04/08","01:03:46",16288.000,"cc",28350.668,6.00,6,0.100,10484.000,0.200,1916.000,0.300,1619.000,0.500,1730.000,1.000,539.000,5.000,0
"04/04/08","01:03:52",16317.000,"cc",28368.736,6.00,6,0.100,10447.000,0.200,1975.000,0.300,1609.000,0.500,1747.000,1.000,539.000,5.000,0
"04/04/08","01:03:58",16196.000,"cc",28257.994,6.00,6,0.100,10462.000,0.200,1897.000,0.300,1594.000,0.500,1720.000,1.000,523.000,5.000,0
"04/04/08","01:04:04",16095.000,"cc",28349.398,6.00,6,0.100,10417.000,0.200,1907.000,0.300,1549.000,0.500,1673.000,1.000,549.000,5.000,0
"04/04/08","01:04:10",15957.000,"cc",28323.672,6.00,6,0.100,10242.000,0.200,1965.000,0.300,1523.000,0.500,1684.000,1.000,543.000,5.000,0
"04/04/08","01:04:16",16013.000,"cc",28329.596,6.00,6,0.100,10293.000,0.200,1883.000,0.300,1567.000,0.500,1698.000,1.000,572.000,5.000,0
"04/04/08","01:04:22",16245.000,"cc",28333.250,6.00,6,0.100,10316.000,0.200,1993.000,0.300,1611.000,0.500,1758.000,1.000,567.000,5.000,0
"04/04/08","01:04:28",16079.000,"cc",28279.867,6.00,6,0.100,10386.000,0.200,1973.000,0.300,1575.000,0.500,1635.000,1.000,510.000,5.000,0
"04/04/08","01:04:34",16303.000,"cc",28363.240,6.00,6,0.100,10544.000,0.200,1937.000,0.300,1596.000,0.500,1697.000,1.000,529.000,5.000,0
"04/04/08","01:04:40",16136.000,"cc",28354.147,6.00,6,0.100,10324.000,0.200,2003.000,0.300,1607.000,0.500,1671.000,1.000,531.000,5.000,0
"04/04/08","01:04:46",15953.000,"cc",28264.693,6.00,6,0.100,10312.000,0.200,1931.000,0.300,1528.000,0.500,1631.000,1.000,551.000,5.000,0
"04/04/08","01:04:52",16240.000,"cc",28324.272,6.00,6,0.100,10422.000,0.200,1958.000,0.300,1617.000,0.500,1673.000,1.000,570.000,5.000,0
"04/04/08","01:04:58",16200.000,"cc",28285.141,6.00,6,0.100,10451.000,0.200,2021.000,0.300,1533.000,0.500,1675.000,1.000,520.000,5.000,0
"04/04/08","01:05:04",16197.000,"cc",28287.334,6.00,6,0.100,10390.000,0.200,1977.000,0.300,1540.000,0.500,1761.000,1.000,529.000,5.000,0
"04/04/08","01:05:10",16276.000,"cc",28348.057,6.00,6,0.100,10450.000,0.200,2028.000,0.300,1578.000,0.500,1694.000,1.000,526.000,5.000,0
"04/04/08","01:05:16",16126.000,"cc",28257.660,6.00,6,0.100,10356.000,0.200,1968.000,0.300,1584.000,0.500,1704.000,1.000,514.000,5.000,0
"04/04/08","01:05:22",16113.000,"cc",28226.969,6.00,6,0.100,10426.000,0.200,1911.000,0.300,1557.000,0.500,1634.000,1.000,585.000,5.000,0
"04/04/08","01:05:28",16267.000,"cc",28380.945,6.00,6,0.100,10511.000,0.200,1917.000,0.300,1552.000,0.500,1738.000,1.000,549.000,5.000,0
"04/04/08","01:05:34",16134.000,"cc",28377.789,6.00,6,0.100,10360.000,0.200,1911.000,0.300,1600.000,0.500,1671.000,1.000,592.000,5.000,0
"04/04/08","01:05:40",16096.000,"cc",28286.363,6.00,6,0.100,10421.000,0.200,1918.000,0.300,1564.000,0.500,1650.000,1.000,543.000,5.000,0
"04/04/08","01:05:46",15903.000,"cc",28321.225,6.00,6,0.100,10251.000,0.200,1892.000,0.300,1590.000,0.500,1644.000,1.000,526.000,5.000,0
"04/04/08","01:05:52",16083.000,"cc",28327.315,6.00,6,0.100,10458.000,0.200,1909.000,0.300,1491.000,0.500,1684.000,1.000,541.000,5.000,0
"04/04/08","01:05:58",16308.000,"cc",28260.752,6.00,6,0.100,10542.000,0.200,1979.000,0.300,1561.000,0.500,1696.000,1.000,530.000,5.000,0
"04/04/08","01:06:04",16014.000,"cc",28361.065,6.00,6,0.100,10265.000,0.200,2055.000,0.300,1553.000,0.500,1635.000,1.000,506.000,5.000,0
"04/04/08","01:06:10",15967.000,"cc",28381.170,6.00,6,0.100,10431.000,0.200,1878.000,0.300,1506.000,0.500,1605.000,1.000,547.000,5.000,0
"04/04/08","01:06:16",16114.000,"cc",28288.617,6.00,6,0.100,10354.000,0.200,1946.000,0.300,1524.000,0.500,1767.000,1.000,523.000,5.000,0
"04/04/08","01:06:22",15944.000,"cc",28304.957,6.00,6,0.100,10353.000,0.200,1928.000,0.300,1492.000,0.500,1604.000,1.000,567.000,5.000,0
"04/04/08","01:06:28",16046.000,"cc",28327.397,6.00,6,0.100,10315.000,0.200,1919.000,0.300,1569.000,0.500,1700.000,1.000,543.000,5.000,0
"04/04/08","01:06:34",16065.000,"cc",28307.627,6.00,6,0.100,10348.000,0.200,1900.000,0.300,1524.000,0.500,1734.000,1.000,559.000,5.000,0
"04/04/08","01:06:40",16048.000,"cc",28326.078,6.00,6,0.100,10477.000,0.200,1849.000,0.300,1571.000,0.500,1641.000,1.000,510.000,5.000,0
"04/04/08","01:06:46",15930.000,"cc",28283.828,6.00,6,0.100,10283.000,0.200,1947.000,0.300,1518.000,0.500,1654.000,1.000,528.000,5.000,0
"04/04/08","01:06:52",16424.000,"cc",28310.731,6.00,6,0.100,10623.000,0.200,1964.000,0.300,1573.000,0.500,1703.000,1.000,561.000,5.000,0
"04/04/08","01:06:58",15782.000,"cc",28333.621,6.00,6,0.100,10120.000,0.200,1867.000,0.300,1527.000,0.500,1730.000,1.000,538.000,5.000,0
"04/04/08","01:07:04",16137.000,"cc",28303.473,6.00,6,0.100,10510.000,0.200,1965.000,0.300,1535.000,0.500,1650.000,1.000,477.000,5.000,0
"04/04/08","01:07:10",15999.000,"cc",28317.471,6.00,6,0.100,10364.000,0.200,1926.000,0.300,1518.000,0.500,1658.000,1.000,533.000,5.000,0
"04/04/08","01:07:16",16281.000,"cc",28322.195,6.00,6,0.100,10632.000,0.200,1927.000,0.300,1527.000,0.500,1667.000,1.000,528.000,5.000,0
"04/04/08","01:07:22",15971.000,"cc",28310.303,6.00,6,0.100,10321.000,0.200,1936.000,0.300,1567.000,0.500,1639.000,1.000,508.000,5.000,0
"04/04/08","01:07:28",16184.000,"cc",28355.561,6.00,6,0.100,10480.000,0.200,1893.000,0.300,1561.000,0.500,1718.000,1.000,532.000,5.000,0
"04/04/08","01:07:34",16118.000,"cc",28287.447,6.00,6,0.100,10509.000,0.200,1913.000,0.300,1573.000,0.500,1602.000,1.000,521.000,5.000,0
"04/04/08","01:07:40",15913.000,"cc",28348.900,6.00,6,0.100,10219.000,0.200,1917.000,0.300,1494.000,0.500,1720.000,1.000,563.000,5.000,0
"04/04/08","01:07:46",16130.000,"cc",28377.008,6.00,6,0.100,10501.000,0.200,1902.000,0.300,1582.000,0.500,1615.000,1.000,530.000,5.000,0
"04/04/08","01:07:52",16237.000,"cc",28322.529,6.00,6,0.100,10620.000,0.200,1896.000,0.300,1557.000,0.500,1675.000,1.000,489.000,5.000,0
"04/04/08","01:07:58",16034.000,"cc",28339.910,6.00,6,0.100,10511.000,0.200,1962.000,0.300,1496.000,0.500,1563.000,1.000,502.000,5.000,0
"04/04/08","01:08:04",16143.000,"cc",28296.547,6.00,6,0.100,10444.000,0.200,1989.000,0.300,1484.000,0.500,1680.000,1.000,546.000,5.000,0
"04/04/08","01:08:10",16272.000,"cc",28290.619,6.00,6,0.100,10634.000,0.200,1849.000,0.300,1554.000,0.500,1713.000,1.000,522.000,5.000,0
"04/04/08","01:08:16",16142.000,"cc",28283.914,6.00,6,0.100,10503.000,0.200,1948.000,0.300,1503.000,0.500,1675.000,1.000,513.000,5.000,0
"04/04/08","01:08:22",16186.000,"cc",28308.553,6.00,6,0.100,10537.000,0.200,1987.000,0.300,1499.000,0.500,1647.000,1.000,516.000,5.000,0
"04/04/08","01:08:28",16076.000,"cc",28364.432,6.00,6,0.100,10382.000,0.200,1950.000,0.300,1527.000,0.500,1646.000,1.000,571.000,5.000,0
"04/04/08","01:08:34",16412.000,"cc",28290.525,6.00,6,0.100,10680.000,0.200,1962.000,0.300,1540.000,0.500,1684.000,1.000,546.000,5.000,0
"04/04/08","01:08:40",16278.000,"cc",28272.656,6.00,6,0.100,10600.000,0.200,1923.000,0.300,1535.000,0.500,1729.000,1.000,491.000,5.000,0
"04/04/08","01:08:46",16214.000,"cc",28374.498,6.00,6,0.100,10496.000,0.200,1945.000,0.300,1493.000,0.500,1714.000,1.000,566.000,5.000,0
"04/04/08","01:08:52",15971.000,"cc",28329.229,6.00,6,0.100,10365.000,0.200,1906.000,0.300,1471.000,0.500,1664.000,1.000,565.000,5.000,0
"04/04/08","01:08:58",16343.000,"cc",28309.467,6.00,6,0.100,10661.000,0.200,1977.000,0.300,1576.000,0.500,1617.000,1.000,512.000,5.000,0
"04/04/08","01:09:04",16446.000,"cc",28273.900,6.00,6,0.100,10588.000,0.200,1911.000,0.300,1635.000,0.500,1694.000,1.000,618.000,5.000,0
"04/04/08","01:09:10",16099.000,"cc",28362.367,6.00,6,0.100,10510.000,0.200,1894.000,0.300,1583.000,0.500,1601.000,1.000,511.000,5.000,0
"04/04/08","01:09:16",16020.000,"cc",28285.498,6.00,6,0.100,10356.000,0.200,1899.000,0.300,1589.000,0.500,1632.000,1.000,544.000,5.000,0
"04/04/08","01:09:22",16324.000,"cc",28309.219,6.00,6,0.100,10662.000,0.200,1969.000,0.300,1491.000,0.500,1689.000,1.000,513.000,5.000,0
"04/04/08","01:09:28",16216.000,"cc",28366.088,6.00,6,0.100,10545.000,0.200,1877.000,0.300,1551.000,0.500,1682.000,1.000,561.000,5.000,0
"04/04/08","01:09:34",16441.000,"cc",28276.391,6.00,6,0.100,10695.000,0.200,1941.000,0.300,1542.000,0.500,1690.000,1.000,573.000,5.000,0
"04/04/08","01:09:40",16199.000,"cc",28283.609,6.00,6,0.100,10623.000,0.200,1873.000,0.300,1500.000,0.500,1647.000,1.000,556.000,5.000,0
"04/04/08","01:09:46",16403.000,"cc",28327.959,6.00,6,0.100,10849.000,0.200,1920.000,0.300,1451.000,0.500,1675.000,1.000,508.000,5.000,0
"04/04/08","01:09:52",16549.000,"cc",28365.727,6.00,6,0.100,10866.000,0.200,1950.000,0.300,1526.000,0.500,1675.000,1.000,532.000,5.000,0
"04/04/08","01:09:58",16297.000,"cc",28285.482,6.00,6,0.100,10618.000,0.200,1886.000,0.300,1523.000,0.500,1729.000,1.000,541.000,5.000,0
"04/04/08","01:10:04",16507.000,"cc",28267.846,6.00,6,0.100,10842.000,0.200,1915.000,0.300,1575.000,0.500,1636.000,1.000,539.000,5.000,0
"04/04/08","01:10:10",16392.000,"cc",28360.721,6.00,6,0.100,10670.000,0.200,1923.000,0.300,1536.000,0.500,1718.000,1.000,545.000,5.000,0
"04/04/08","01:10:16",16530.000,"cc",28358.338,6.00,6,0.100,10855.000,0.200,1917.000,0.300,1506.000,0.500,1687.000,1.000,565.000,5.000,0
"04/04/08","01:10:22",16122.000,"cc",28329.098,6.00,6,0.100,10461.000,0.200,1901.000,0.300,1519.000,0.500,1698.000,1.000,543.000,5.000,0
"04/04/08","01:10:28",16438.000,"cc",28372.236,6.00,6,0.100,10767.000,0.200,1990.000,0.300,1522.000,0.500,1612.000,1.000,547.000,5.000,0
"04/04/08","01:10:34",16407.000,"cc",28325.029,6.00,6,0.100,10751.000,0.200,1952.000,0.300,1509.000,0.500,1682.000,1.000,513.000,5.000,0
"04/04/08","01:10:40",16470.000,"cc",28274.643,6.00,6,0.100,10808.000,0.200,1896.000,0.300,1518.000,0.500,1692.000,1.000,556.000,5.000,0
"04/04/08","01:10:46",16396.000,"cc",28290.482,6.00,6,0.100,10622.000,0.200,1923.000,0.300,1574.000,0.500,1741.000,1.000,536.000,5.000,0
"04/04/08","01:10:52",16312.000,"cc",28321.039,6.00,6,0.100,10605.000,0.200,1917.000,0.300,1583.000,0.500,1690.000,1.000,517.000,5.000,0
"04/04/08","01:10:58",16433.000,"cc",28348.887,6.00,6,0.100,10687.000,0.200,1979.000,0.300,1478.000,0.500,1691.000,1.000,598.000,5.000,0
"04/04/08","01:11:04",16372.000,"cc",28298.424,6.00,6,0.100,10779.000,0.200,1839.000,0.300,1554.000,0.500,1668.000,1.000,532.000,5.000,0
"04/04/08","01:11:10",16483.000,"cc",28341.316,6.00,6,0.100,10790.000,0.200,1977.000,0.300,1509.000,0.500,1659.000,1.000,548.000,5.000,0
"04/04/08","01:11:16",16435.000,"cc",28281.078,6.00,6,0.100,10749.000,0.200,1909.000,0.300,1552.000,0.500,1680.000,1.000,545.000,5.000,0
"04/04/08","01:11:22",16299.000,"cc",28361.357,6.00,6,0.100,10806.000,0.200,1886.000,0.300,1492.000,0.500,1572.000,1.000,543.000,5.000,0
"04/04/08","01:11:28",16446.000,"cc",28374.658,6.00,6,0.100,10849.000,0.200,1933.000,0.300,1518.000,0.500,1611.000,1.000,535.000,5.000,0
"04/04/08","01:11:34",16721.000,"cc",28309.315,6.00,6,0.100,11034.000,0.200,1957.000,0.300,1503.000,0.500,1668.000,1.000,559.000,5.000,0
"04/04/08","01:11:40",16406.000,"cc",28210.631,6.00,6,0.100,10794.000,0.200,1921.000,0.300,1505.000,0.500,1639.000,1.000,547.000,5.000,0
"04/04/08","01:11:46",16620.000,"cc",28274.574,6.00,6,0.100,10975.000,0.200,1963.000,0.300,1543.000,0.500,1578.000,1.000,561.000,5.000,0
"04/04/08","01:11:52",16591.000,"cc",28252.051,6.00,6,0.100,10799.000,0.200,1939.000,0.300,1510.000,0.500,1753.000,1.000,590.000,5.000,0
"04/04/08","01:11:58",16741.000,"cc",28292.879,6.00,6,0.100,10967.000,0.200,1992.000,0.300,1561.000,0.500,1691.000,1.000,530.000,5.000,0
"04/04/08","01:12:04",16798.000,"cc",28337.039,6.00,6,0.100,11126.000,0.200,1939.000,0.300,1574.000,0.500,1614.000,1.000,545.000,5.000,0
"04/04/08","01:12:10",16323.000,"cc",28345.633,6.00,6,0.100,10840.000,0.200,1780.000,0.300,1561.000,0.500,1576.000,1.000,566.000,5.000,0
"04/04/08","01:12:16",16541.000,"cc",28366.436,6.00,6,0.100,10923.000,0.200,1906.000,0.300,1534.000,0.500,1637.000,1.000,541.000,5.000,0
"04/04/08","01:12:22",16739.000,"cc",28365.221,6.00,6,0.100,11111.000,0.200,1964.000,0.300,1480.000,0.500,1645.000,1.000,539.000,5.000,0
"04/04/08","01:12:28",16544.000,"cc",28351.928,6.00,6,0.100,10999.000,0.200,1914.000,0.300,1501.000,0.500,1597.000,1.000,533.000,5.000,0
"04/04/08","01:12:34",16465.000,"cc",28338.580,6.00,6,0.100,10938.000,0.200,1887.000,0.300,1479.000,0.500,1614.000,1.000,547.000,5.000,0
"04/04/08","01:12:40",16508.000,"cc",28274.920,6.00,6,0.100,10871.000,0.200,1956.000,0.300,1413.000,0.500,1700.000,1.000,568.000,5.000,0
"04/04/08","01:12:46",16265.000,"cc",28365.131,6.00,6,0.100,10741.000,0.200,1857.000,0.300,1471.000,0.500,1637.000,1.000,559.000,5.000,0
"04/04/08","01:12:52",16494.000,"cc",28352.010,6.00,6,0.100,10880.000,0.200,1856.000,0.300,1520.000,0.500,1715.000,1.000,523.000,5.000,0
"04/04/08","01:12:58",16465.000,"cc",28331.647,6.00,6,0.100,10881.000,0.200,1907.000,0.300,1522.000,0.500,1621.000,1.000,532.000,5.000,2.000
"04/04/08","01:13:04",16521.000,"cc",28259.330,6.00,6,0.100,10990.000,0.200,1840.000,0.300,1500.000,0.500,1638.000,1.000,553.000,5.000,0
"04/04/08","01:13:10",16751.000,"cc",28277.631,6.00,6,0.100,11076.000,0.200,1893.000,0.300,1537.000,0.500,1661.000,1.000,584.000,5.000,0
"04/04/08","01:13:16",16657.000,"cc",28277.523,6.00,6,0.100,11057.000,0.200,1858.000,0.300,1550.000,0.500,1659.000,1.000,533.000,5.000,0
"04/04/08","01:13:22",16747.000,"cc",28338.328,6.00,6,0.100,11229.000,0.200,1800.000,0.300,1536.000,0.500,1629.000,1.000,553.000,5.000,0
"04/04/08","01:13:28",16729.000,"cc",28342.838,6.00,6,0.100,11107.000,0.200,1890.000,0.300,1485.000,0.500,1688.000,1.000,559.000,5.000,0
"04/04/08","01:13:34",16666.000,"cc",28312.471,6.00,6,0.100,11133.000,0.200,1852.000,0.300,1495.000,0.500,1646.000,1.000,540.000,5.000,0
"04/04/08","01:13:40",16892.000,"cc",28307.383,6.00,6,0.100,11261.000,0.200,1929.000,0.300,1496.000,0.500,1690.000,1.000,516.000,5.000,0
"04/04/08","01:13:46",16598.000,"cc",28344.811,6.00,6,0.100,10916.000,0.200,1952.000,0.300,1526.000,0.500,1660.000,1.000,544.000,5.000,0
"04/04/08","01:13:52",16940.000,"cc",28283.025,6.00,6,0.100,11382.000,0.200,1802.000,0.300,1544.000,0.500,1681.000,1.000,531.000,5.000,0
"04/04/08","01:13:58",16645.000,"cc",28300.328,6.00,6,0.100,11106.000,0.200,1891.000,0.300,1447.000,0.500,1665.000,1.000,536.000,5.000,0
"04/04/08","01:14:04",16625.000,"cc",28318.740,6.00,6,0.100,11072.000,0.200,1866.000,0.300,1524.000,0.500,1659.000,1.000,504.000,5.000,0
"04/04/08","01:14:10",16742.000,"cc",28320.703,6.00,6,0.100,11144.000,0.200,1900.000,0.300,1486.000,0.500,1648.000,1.000,564.000,5.000,0
"04/04/08","01:14:16",16584.000,"cc",28282.100,6.00,6,0.100,11168.000,0.200,1830.000,0.300,1418.000,0.500,1628.000,1.000,540.000,5.000,0
"04/04/08","01:14:22",16773.000,"cc",28283.592,6.00,6,0.100,11155.000,0.200,1873.000,0.300,1502.000,0.500,1706.000,1.000,537.000,5.000,0
"04/04/08","01:14:28",16300.000,"cc",28379.176,6.00,6,0.100,10942.000,0.200,1776.000,0.300,1477.000,0.500,1598.000,1.000,507.000,5.000,0
"04/04/08","01:14:34",16489.000,"cc",28348.023,6.00,6,0.100,10978.000,0.200,1839.000,0.300,1525.000,0.500,1620.000,1.000,527.000,5.000,0
"04/04/08","01:14:40",16719.000,"cc",28331.246,6.00,6,0.100,11109.000,0.200,1896.000,0.300,1491.000,0.500,1691.000,1.000,532.000,5.000,0
"04/04/08","01:14:46",16773.000,"cc",28243.414,6.00,6,0.100,11234.000,0.200,1893.000,0.300,1460.000,0.500,1646.000,1.000,540.000,5.000,0
"04/04/08","01:14:52",16778.000,"cc",28295.801,6.00,6,0.100,11184.000,0.200,1924.000,0.300,1538.000,0.500,1608.000,1.000,524.000,5.000,0
"04/04/08","01:14:58",16635.000,"cc",28357.039,6.00,6,0.100,11173.000,0.200,1869.000,0.300,1463.000,0.500,1608.000,1.000,522.000,5.000,0
"04/04/08","01:15:04",16389.000,"cc",28322.354,6.00,6,0.100,10953.000,0.200,1852.000,0.300,1423.000,0.500,1615.000,1.000,546.000,5.000,0
"04/04/08","01:15:10",16537.000,"cc",28295.262,6.00,6,0.100,10975.000,0.200,1957.000,0.300,1491.000,0.500,1609.000,1.000,505.000,5.000,0
"04/04/08","01:15:16",16786.000,"cc",28312.920,6.00,6,0.100,11083.000,0.200,1906.000,0.300,1591.000,0.500,1663.000,1.000,543.000,5.000,0
"04/04/08","01:15:22",16842.000,"cc",28307.627,6.00,6,0.100,11216.000,0.200,1945.000,0.300,1526.000,0.500,1593.000,1.000,562.000,5.000,0
"04/04/08","01:15:28",16767.000,"cc",28363.262,6.00,6,0.100,11164.000,0.200,1888.000,0.300,1493.000,0.500,1687.000,1.000,535.000,5.000,0
"04/04/08","01:15:34",16540.000,"cc",28302.285,6.00,6,0.100,10994.000,0.200,1826.000,0.300,1536.000,0.500,1670.000,1.000,514.000,5.000,0
"04/04/08","01:15:40",16661.000,"cc",28289.236,6.00,6,0.100,11135.000,0.200,1884.000,0.300,1473.000,0.500,1664.000,1.000,505.000,5.000,0
"04/04/08","01:15:46",16662.000,"cc",28300.379,6.00,6,0.100,11205.000,0.200,1812.000,0.300,1509.000,0.500,1619.000,1.000,517.000,5.000,0
"04/04/08","01:15:52",16646.000,"cc",28346.596,6.00,6,0.100,11269.000,0.200,1782.000,0.300,1461.000,0.500,1607.000,1.000,527.000,5.000,0
"04/04/08","01:15:58",16642.000,"cc",28291.029,6.00,6,0.100,11119.000,0.200,1841.000,0.300,1495.000,0.500,1660.000,1.000,527.000,5.000,0
"04/04/08","01:16:04",16622.000,"cc",28342.895,6.00,6,0.100,11165.000,0.200,1835.000,0.300,1481.000,0.500,1624.000,1.000,517.000,5.000,0
"04/04/08","01:16:10",16772.000,"cc",28370.449,6.00,6,0.100,11201.000,0.200,1916.000,0.300,1467.000,0.500,1662.000,1.000,526.000,5.000,0
"04/04/08","01:16:16",16647.000,"cc",28295.693,6.00,6,0.100,11121.000,0.200,1910.000,0.300,1468.000,0.500,1600.000,1.000,548.000,5.000,0
"04/04/08","01:16:22",16968.000,"cc",28320.475,6.00,6,0.100,11456.000,0.200,1892.000,0.300,1481.000,0.500,1582.000,1.000,557.000,5.000,0